Location: Borz?cin
(51.1714°N, 19.6030°E)
Time: 17:25:01
(UTC+00:00)

SL-8 Rocket - Pass Details

Date: 19 May 2025
Orbit: 955 x 990 km, 82.9° (Epoch: 20 June)

Event Time Altitude Azimuth Distance (km) Brightness Sun altitude
Rises 19:30:29 0° 351° (N) 3,658 8.0 -7.9°
Reaches altitude 10° 19:33:04 10° 356° (N) 2,704 7.2 -8.1°
Maximum altitude 19:39:09 57° 75° (ENE) 1,116 4.2 -8.8°
Enters shadow 19:45:04 11° 154° (SSE) 2,643 5.6 -9.4°
